Location: Bittelbronn
(48.4454°N, 8.5870°E)
Time: 00:15:38
(UTC+00:00)

Meteor 2-5 Rocket - Pass Details

Date: 15 August 2024
Orbit: 833 x 910 km, 81.2° (Epoch: 07 September)

Event Time Altitude Azimuth Distance (km) Brightness Sun altitude
Rises 03:37:05 0° 333° (NNW) 3,480 6.9 -7.2°
Reaches altitude 10° 03:40:40 10° 310° (NW) 2,552 6.0 -6.7°
Maximum altitude 03:43:37 14° 279° (W) 2,256 5.5 -6.2°
Drops below altitude 10° 03:46:36 10° 248° (WSW) 2,567 5.5 -5.8°
Enters shadow 03:47:57 - 238° (WSW) 2,872 5.8 -5.6°
